Tracking 31027 objects as of 19-Jul-2025
HD Live streaming from Space Station
objects crossing your sky now

OBJECT X

Track OBJECT X now!
10-day predictions


NORAD ID: 47953
Int'l Code: 2021-022X
Perigee: 447.6 km
Apogee: 462.6 km
Inclination: 97.4 °
Period: 93.5 minutes
Semi major axis: 6826 km
RCS: Unknown
Launch date: March 22, 2021
Source: (TBD)
Launch site: TYURATAM MISSILE AND SPACE COMPLEX (TTMTR)

Note: This is a ROCKET BODY
Your satellite tracking list
RESURS O1 DEB
Track 1 satellite(s)




NASA's NSSDC Master Catalog

Two Line Element Set (TLE):
1 47953U 21022X   25199.85363596  .00015737  00000-0  40358-3 0  9992
2 47953  97.4157 101.2610 0010978 171.0450 189.0993 15.39377769238769
Source of the keplerian elements: AFSPC